FW3961 Weather Reports


Display with metric or nautical units.
time (UTC)temp
F
wind
direction
speed
MPH
gust
MPH
rain 1hr
in
rain 24hr
in
rain mn
in
humidity
%
barometer
mb
20260901235717 66 231 2.0 5.0 0.00 0.01 0.01 68 1012.5
20260901235218 67 220 2.0 8.0 0.00 0.01 0.01 67 1012.5
20260901234716 67 233 2.0 8.0 0.00 0.01 0.01 67 1012.5
20260901234217 67 203 2.0 8.0 0.00 0.01 0.01 67 1012.5
20260901233717 67 139 2.0 8.0 0.00 0.01 0.01 67 1012.5
20260901233217 67 246 2.0 5.0 0.00 0.01 0.01 68 1012.6
20260901232716 67 217 2.0 5.0 0.00 0.01 0.01 67 1012.6
20260901232217 67 202 2.0 7.0 0.00 0.01 0.01 67 1012.5
20260901231717 67 232 2.0 7.0 0.00 0.01 0.01 67 1012.7
20260901231216 67 252 2.0 6.0 0.00 0.01 0.01 68 1012.7
20260901230717 67 191 2.0 8.0 0.00 0.01 0.01 68 1012.7
20260901230217 67 216 3.0 8.0 0.00 0.01 0.01 68 1012.7
20260901225716 67 228 1.0 6.0 0.00 0.01 0.01 68 1012.7
20260901225216 67 201 1.0 4.0 0.00 0.01 0.01 69 1012.7
20260901224717 67 221 2.0 5.0 0.00 0.01 0.01 70 1012.7
20260901224216 67 215 2.0 6.0 0.00 0.01 0.01 69 1012.7
20260901223721 67 250 1.0 8.0 0.00 0.01 0.01 70 1012.6
20260901223716 67 228 1.0 6.0 0.00 0.01 0.01 69 1012.8
20260901222717 67 251 1.0 8.0 0.00 0.01 0.01 69 1012.7
20260901222216 67 187 1.0 3.0 0.00 0.01 0.01 70 1012.8
20260901221717 66 198 1.0 5.0 0.00 0.01 0.01 70 1012.7
20260901221216 66 248 1.0 5.0 0.00 0.01 0.01 70 1012.7
20260901220721 66 148 1.0 4.0 0.00 0.01 0.01 69 1012.8
20260901220717 66 245 1.0 4.0 0.00 0.01 0.01 70 1012.7
20260901215717 66 139 1.0 4.0 0.00 0.01 0.01 69 1012.8
20260901215217 67 159 1.0 4.0 0.00 0.01 0.01 69 1012.8
20260901214722 67 183 1.0 4.0 0.00 0.01 0.01 68 1012.7
20260901214716 67 206 1.0 4.0 0.00 0.01 0.01 69 1012.6
20260901214216 67 217 1.0 4.0 0.00 0.01 0.01 69 1012.6
20260901213215 67 123 2.0 7.0 0.00 0.01 0.01 69 1012.6
20260901212711 67 73 2.0 7.0 0.00 0.01 0.01 68 1012.5
20260901212206 67 50 2.0 8.0 0.00 0.01 0.01 68 1012.7
20260901211700 67 182 2.0 9.0 0.00 0.01 0.01 68 1012.7
20260901211656 67 227 2.0 9.0 0.00 0.01 0.01 69 1012.6
20260901210646 67 63 3.0 9.0 0.00 0.01 0.01 69 1012.7
20260901210143 66 215 3.0 9.0 0.00 0.01 0.01 69 1012.6
20260901205642 66 208 2.0 7.0 0.00 0.01 0.01 70 1012.5
20260901205142 66 298 2.0 7.0 0.00 0.01 0.01 71 1012.6
20260901204645 66 194 1.0 4.0 0.00 0.01 0.01 71 1012.6
20260901204142 66 209 1.0 7.0 0.00 0.01 0.01 71 1012.6
20260901204017 66 180 1.0 5.0 0.00 0.01 0.01 72 1012.6
20260901203909 66 139 1.0 7.0 0.00 0.01 0.01 71 1012.6
20260901202638 66 137 1.0 4.0 0.00 0.01 0.01 72 1012.6
20260901202139 66 172 1.0 4.0 0.00 0.01 0.01 72 1012.7
20260901201638 66 113 2.0 7.0 0.00 0.01 0.01 72 1012.7
20260901201138 65 76 1.0 7.0 0.00 0.01 0.01 73 1012.7
20260901200638 65 124 1.0 3.0 0.00 0.01 0.01 75 1012.7
20260901200136 65 124 1.0 4.0 0.00 0.01 0.01 76 1012.8
20260901195635 65 124 2.0 4.0 0.00 0.01 0.01 76 1012.7
20260901195139 64 130 2.0 5.0 0.00 0.01 0.01 77 1012.8
20260901194638 64 126 2.0 8.0 0.00 0.01 0.01 77 1013.1
20260901194634 64 131 2.0 8.0 0.00 0.01 0.01 76 1013.0
20260901193634 64 128 2.0 5.0 0.00 0.01 0.01 76 1013.2
20260901193630 64 133 2.0 5.0 0.00 0.01 0.01 77 1013.1
20260901192622 64 131 2.0 5.0 0.00 0.01 0.01 77 1013.2
20260901192117 65 127 3.0 8.0 0.00 0.01 0.01 77 1013.2
20260901191609 65 128 3.0 8.0 0.00 0.01 0.01 77 1013.2
20260901191103 64 134 2.0 7.0 0.00 0.01 0.01 78 1013.3
20260901190558 64 103 2.0 7.0 0.00 0.01 0.01 79 1013.3
20260901190052 63 129 3.0 6.0 0.00 0.01 0.01 79 1013.4
20260901185545 63 128 2.0 5.0 0.00 0.01 0.01 80 1013.5
20260901185040 63 116 2.0 5.0 0.00 0.01 0.01 81 1013.5
20260901185035 63 157 2.0 7.0 0.00 0.01 0.01 81 1013.5
20260901184028 63 132 1.0 7.0 0.00 0.01 0.01 80 1013.5
20260901183522 63 198 1.0 5.0 0.00 0.01 0.01 82 1013.5
20260901183016 63 200 1.0 5.0 0.00 0.01 0.01 81 1013.5
20260901183012 63 111 1.0 4.0 0.00 0.01 0.01 82 1013.6
20260901182004 63 221 0.0 2.0 0.00 0.01 0.01 82 1013.6
20260901181458 63 224 1.0 5.0 0.00 0.01 0.01 83 1013.7
20260901180952 62 211 2.0 5.0 0.00 0.01 0.01 83 1013.7
20260901180446 62 222 1.0 5.0 0.00 0.01 0.01 84 1013.7
20260901175940 62 102 1.0 4.0 0.00 0.01 0.01 86 1013.7
20260901175435 61 230 1.0 3.0 0.00 0.01 0.01 87 1013.7
20260901174927 61 171 1.0 2.0 0.00 0.01 0.01 87 1013.7
20260901174421 61 170 1.0 3.0 0.00 0.01 0.01 87 1013.7
20260901173916 61 172 1.0 3.0 0.00 0.01 0.01 88 1013.7
20260901173410 61 132 1.0 3.0 0.00 0.01 0.01 88 1013.6
20260901172904 61 208 0.0 2.0 0.00 0.01 0.01 89 1013.7
20260901172400 60 208 0.0 1.0 0.00 0.01 0.01 89 1013.7
20260901171852 60 207 0.0 2.0 0.00 0.01 0.01 89 1013.6
20260901171345 60 208 0.0 2.0 0.00 0.01 0.01 88 1013.5
20260901170840 60 208 1.0 4.0 0.00 0.01 0.01 88 1013.6
20260901170338 60 211 1.0 4.0 0.00 0.01 0.01 88 1013.6
20260901165842 60 224 0.0 5.0 0.00 0.01 0.01 89 1013.5
20260901165838 60 62 1.0 5.0 0.00 0.01 0.01 89 1013.5
20260901164835 61 138 0.0 1.0 0.00 0.01 0.01 90 1013.5
20260901164335 60 136 0.0 1.0 0.00 0.01 0.01 91 1013.5
20260901163841 60 135 1.0 3.0 0.01 0.01 0.01 92 1013.6
20260901163833 60 136 1.0 3.0 0.01 0.01 0.01 92 1013.6
20260901162838 60 144 1.0 3.0 0.01 0.01 0.01 92 1013.5
20260901162332 59 145 1.0 3.0 0.01 0.01 0.01 92 1013.7
20260901161830 59 145 0.0 2.0 0.01 0.01 0.01 93 1013.6
20260901161328 59 145 0.0 2.0 0.01 0.01 0.01 93 1013.7
20260901160826 58 146 0.0 2.0 0.01 0.01 0.01 93 1013.6
20260901160324 58 146 0.0 2.0 0.01 0.01 0.01 93 1013.7
20260901155823 58 146 0.0 2.0 0.01 0.01 0.01 93 1013.7
20260901155324 58 146 0.0 2.0 0.01 0.01 0.01 93 1013.7
20260901154827 58 146 0.0 2.0 0.01 0.01 0.01 93 1013.6
20260901154823 58 146 0.0 2.0 0.01 0.01 0.01 93 1013.7
20260901153821 58 146 0.0 2.0 0.00 0.00 0.00 93 1013.5
20260901153320 58 146 0.0 2.0 0.00 0.00 0.00 92 1013.6
20260901152822 57 148 0.0 2.0 0.00 0.00 0.00 92 1013.5
20260901152313 57 147 0.0 1.0 0.00 0.00 0.00 92 1013.6
20260901151807 57 147 1.0 2.0 0.00 0.00 0.00 92 1013.6
20260901151310 57 147 0.0 3.0 0.00 0.00 0.00 91 1013.4
20260901151306 57 147 1.0 3.0 0.00 0.00 0.00 92 1013.6
20260901150306 57 148 1.0 3.0 0.00 0.00 0.00 91 1013.5
20260901145806 57 148 0.0 3.0 0.00 0.00 0.00 90 1013.5
20260901145306 58 150 0.0 1.0 0.00 0.00 0.00 90 1013.4
20260901144805 58 150 0.0 1.0 0.00 0.00 0.00 90 1013.3
20260901144319 58 151 1.0 5.0 0.00 0.00 0.00 87 1013.5
20260901144305 58 149 0.0 2.0 0.00 0.00 0.00 89 1013.3
20260901143805 58 150 1.0 3.0 0.00 0.00 0.00 89 1013.3
20260901143306 58 149 1.0 3.0 0.00 0.00 0.00 88 1013.4
20260901142305 58 151 0.0 5.0 0.00 0.00 0.00 86 1013.4
20260901141801 59 180 0.0 1.0 0.00 0.00 0.00 86 1013.3
20260901141302 59 180 0.0 2.0 0.00 0.00 0.00 86 1013.1
20260901140801 59 159 1.0 2.0 0.00 0.00 0.00 85 1013.3
20260901140302 59 159 1.0 2.0 0.00 0.00 0.00 85 1013.2
20260901135805 58 159 1.0 2.0 0.00 0.00 0.00 85 1013.2
20260901135306 58 159 1.0 4.0 0.00 0.00 0.00 85 1013.2
20260901134805 58 159 1.0 4.0 0.00 0.00 0.00 85 1013.2
20260901134306 58 159 0.0 2.0 0.00 0.00 0.00 85 1013.2
20260901133800 58 159 0.0 2.0 0.00 0.00 0.00 85 1013.1
20260901133254 58 198 0.0 0.0 0.00 0.00 0.00 85 1013.0
20260901132747 58 198 0.0 0.0 0.00 0.00 0.00 85 1013.1
20260901132241 58 198 0.0 0.0 0.00 0.00 0.00 86 1013.0
20260901131738 58 198 0.0 0.0 0.00 0.00 0.00 86 1013.0
20260901131734 58 198 0.0 0.0 0.00 0.00 0.00 86 1013.0
20260901130723 58 198 0.0 0.0 0.00 0.00 0.00 86 1013.1
20260901130218 58 198 0.0 0.0 0.00 0.00 0.00 86 1013.1
20260901125711 58 198 0.0 0.0 0.00 0.00 0.00 86 1013.0
20260901125205 58 198 0.0 1.0 0.00 0.00 0.00 86 1013.0
20260901124659 58 198 0.0 1.0 0.00 0.00 0.00 86 1013.0
20260901124154 58 199 0.0 1.0 0.00 0.00 0.00 86 1013.0
20260901123647 58 199 0.0 1.0 0.00 0.00 0.00 86 1013.0
20260901123140 58 199 0.0 1.0 0.00 0.00 0.00 86 1013.0
20260901122634 58 199 0.0 1.0 0.00 0.00 0.00 86 1013.0
20260901122128 58 199 0.0 1.0 0.00 0.00 0.00 86 1013.0
20260901121624 58 199 0.0 1.0 0.00 0.00 0.00 86 1013.1
20260901121616 58 199 0.0 1.0 0.00 0.00 0.00 86 1013.0
20260901120610 58 199 0.0 1.0 0.00 0.00 0.00 86 1013.0
20260901120104 58 199 0.0 0.0 0.00 0.00 0.00 86 1013.0
20260901115557 58 199 0.0 0.0 0.00 0.00 0.00 86 1013.0
20260901115051 58 199 0.0 0.0 0.00 0.00 0.00 86 1013.0
20260901114544 58 199 0.0 1.0 0.00 0.00 0.00 86 1012.8
20260901114040 58 199 0.0 1.0 0.00 0.00 0.00 86 1012.8
20260901113533 58 199 0.0 1.0 0.00 0.00 0.00 86 1013.0
20260901113027 58 199 0.0 1.0 0.00 0.00 0.00 87 1012.8
20260901112527 58 199 0.0 1.0 0.00 0.00 0.00 87 1012.6
20260901112523 58 199 0.0 1.0 0.00 0.00 0.00 87 1012.7
20260901111509 57 199 0.0 1.0 0.00 0.00 0.00 87 1012.6
20260901111003 57 199 0.0 1.0 0.00 0.00 0.00 87 1012.6
20260901110457 57 199 0.0 1.0 0.00 0.00 0.00 88 1012.5
20260901105951 57 199 0.0 0.0 0.00 0.00 0.00 88 1012.6
20260901105445 57 199 0.0 0.0 0.00 0.00 0.00 88 1012.6
20260901104939 57 199 0.0 1.0 0.00 0.00 0.00 88 1012.6
20260901104433 57 199 0.0 1.0 0.00 0.00 0.00 88 1012.5
20260901103929 57 199 0.0 1.0 0.00 0.00 0.00 89 1012.5
20260901103424 57 200 0.0 1.0 0.00 0.00 0.00 89 1012.4
20260901103416 56 200 0.0 1.0 0.00 0.00 0.00 89 1012.3
20260901102409 56 200 0.0 1.0 0.00 0.00 0.00 89 1012.4
20260901101902 56 134 0.0 1.0 0.00 0.00 0.00 89 1012.4
20260901101401 56 134 0.0 0.0 0.00 0.00 0.00 88 1012.4
20260901101357 56 134 0.0 1.0 0.00 0.00 0.00 89 1012.5
20260901100345 56 134 0.0 0.0 0.00 0.00 0.00 88 1012.4
20260901095838 56 134 0.0 0.0 0.00 0.00 0.00 88 1012.4
20260901095333 56 134 0.0 2.0 0.00 0.00 0.00 88 1012.4
20260901094827 56 134 0.0 2.0 0.00 0.00 0.00 88 1012.4
20260901094321 56 134 1.0 3.0 0.00 0.00 0.00 88 1012.3
20260901093815 56 134 1.0 3.0 0.00 0.00 0.00 88 1012.3
20260901093309 56 133 1.0 3.0 0.00 0.00 0.00 88 1012.3
20260901092802 56 134 1.0 3.0 0.00 0.00 0.00 88 1012.3
20260901092642 56 134 1.0 3.0 0.00 0.00 0.00 88 1012.3
20260901092533 56 134 1.0 3.0 0.00 0.00 0.00 88 1012.3
20260901091302 56 134 1.0 3.0 0.00 0.00 0.00 88 1012.2
20260901090803 56 135 1.0 3.0 0.00 0.00 0.00 88 1012.2
20260901090303 56 135 1.0 3.0 0.00 0.00 0.00 88 1012.1
20260901085804 57 136 0.0 2.0 0.00 0.00 0.00 87 1012.1
20260901085305 57 136 0.0 2.0 0.00 0.00 0.00 87 1012.1
20260901084800 57 136 0.0 2.0 0.00 0.00 0.00 87 1012.1
20260901084259 57 136 1.0 3.0 0.00 0.00 0.00 87 1012.0
20260901083800 57 136 1.0 3.0 0.00 0.00 0.00 87 1012.1
20260901083259 57 136 1.0 3.0 0.00 0.00 0.00 87 1012.2
20260901082806 57 132 2.0 5.0 0.00 0.00 0.00 87 1012.2
20260901082758 57 136 1.0 3.0 0.00 0.00 0.00 87 1012.1
20260901081804 57 134 2.0 5.0 0.00 0.00 0.00 87 1012.1
20260901081756 57 132 2.0 5.0 0.00 0.00 0.00 87 1012.2
20260901080754 57 130 2.0 5.0 0.00 0.00 0.00 87 1012.1
20260901080303 57 145 1.0 3.0 0.00 0.00 0.00 87 1012.2
20260901080259 57 131 1.0 4.0 0.00 0.00 0.00 87 1012.2
20260901075259 57 145 1.0 3.0 0.00 0.00 0.00 87 1012.2
20260901074802 57 147 0.0 4.0 0.00 0.00 0.00 86 1012.0
20260901074758 57 145 1.0 3.0 0.00 0.00 0.00 87 1012.1
20260901074255 57 146 1.0 3.0 0.00 0.00 0.00 87 1012.1
20260901073755 57 146 1.0 4.0 0.00 0.00 0.00 86 1012.1
20260901072755 57 200 0.0 1.0 0.00 0.00 0.00 86 1012.0
20260901072254 57 200 0.0 0.0 0.00 0.00 0.00 85 1012.0
20260901071755 57 206 0.0 0.0 0.00 0.00 0.00 85 1012.1
20260901071254 58 213 0.0 1.0 0.00 0.00 0.00 84 1012.0
20260901070755 58 213 0.0 2.0 0.00 0.00 0.00 84 1012.0
20260901070252 58 213 0.0 2.0 0.00 0.00 0.00 84 1011.9
20260901065752 58 213 0.0 2.0 0.00 0.00 0.00 84 1011.9
20260901065251 58 214 0.0 1.0 0.00 0.00 0.00 83 1012.0
20260901065130 59 214 0.0 1.0 0.00 0.00 0.00 83 1011.9
20260901065022 59 214 0.0 1.0 0.00 0.00 0.00 83 1011.9
20260901063746 59 214 0.0 1.0 0.00 0.00 0.00 82 1011.8
20260901063239 59 214 0.0 1.0 0.00 0.00 0.00 82 1011.8
20260901062733 59 215 0.0 2.0 0.00 0.00 0.00 82 1011.7
20260901062728 60 215 0.0 2.0 0.00 0.00 0.00 82 1011.7
20260901061721 60 213 0.0 2.0 0.00 0.00 0.00 82 1011.5
20260901061215 60 213 0.0 1.0 0.00 0.00 0.00 82 1011.5
20260901060709 60 214 0.0 2.0 0.00 0.00 0.00 82 1011.5
20260901060203 60 204 0.0 2.0 0.00 0.00 0.00 81 1011.5
20260901055656 60 186 0.0 3.0 0.00 0.00 0.00 81 1011.5
20260901055151 60 195 0.0 3.0 0.00 0.00 0.00 81 1011.6
20260901055147 61 229 1.0 3.0 0.00 0.00 0.00 80 1011.5
20260901054139 61 215 1.0 3.0 0.00 0.00 0.00 80 1011.4
20260901053632 61 254 1.0 4.0 0.00 0.00 0.00 80 1011.5
20260901053128 61 221 1.0 5.0 0.00 0.00 0.00 80 1011.3
20260901052621 61 252 1.0 5.0 0.00 0.00 0.00 79 1011.3
20260901052115 62 237 0.0 3.0 0.00 0.00 0.00 79 1011.4
20260901051609 62 228 1.0 4.0 0.00 0.00 0.00 79 1011.3
20260901051103 62 184 1.0 4.0 0.00 0.00 0.00 78 1011.2
20260901050557 62 218 0.0 4.0 0.00 0.00 0.00 78 1011.2
20260901050050 63 209 0.0 2.0 0.00 0.00 0.00 77 1011.1
20260901045545 63 209 0.0 3.0 0.00 0.00 0.00 77 1011.2
20260901045039 63 209 0.0 3.0 0.00 0.00 0.00 76 1011.0
20260901044532 64 213 0.0 1.0 0.00 0.00 0.00 75 1011.1
20260901044026 64 214 0.0 1.0 0.00 0.00 0.00 75 1011.1
20260901043521 64 214 0.0 3.0 0.00 0.00 0.00 74 1011.0
20260901043015 64 205 0.0 3.0 0.00 0.00 0.00 74 1010.7
20260901043010 65 209 0.0 2.0 0.00 0.00 0.00 73 1010.7
20260901042003 65 223 1.0 3.0 0.00 0.00 0.00 73 1010.6
20260901041457 65 223 1.0 4.0 0.00 0.00 0.00 72 1010.7
20260901040950 66 279 2.0 6.0 0.00 0.00 0.00 71 1010.5
20260901040446 67 236 2.0 6.0 0.00 0.00 0.00 70 1010.3
20260901035939 67 242 2.0 8.0 0.00 0.00 0.00 69 1010.3
20260901035433 68 251 2.0 8.0 0.00 0.00 0.00 68 1010.2
20260901034927 68 229 1.0 6.0 0.00 0.00 0.00 66 1010.0
20260901034923 69 205 1.0 5.0 0.00 0.00 0.00 65 1009.9
20260901033915 69 263 1.0 4.0 0.00 0.00 0.00 64 1009.7
20260901033409 70 289 1.0 4.0 0.00 0.00 0.00 63 1009.7
20260901032902 70 302 1.0 4.0 0.00 0.00 0.00 62 1009.6
20260901032357 71 13 1.0 3.0 0.00 0.00 0.00 61 1009.4
20260901031851 71 321 1.0 6.0 0.00 0.00 0.00 60 1009.4
20260901031345 71 277 1.0 7.0 0.00 0.00 0.00 59 1009.3
20260901030838 72 302 1.0 7.0 0.00 0.00 0.00 58 1009.3
20260901030333 73 205 1.0 4.0 0.00 0.00 0.00 58 1009.4
20260901025827 73 253 1.0 4.0 0.00 0.00 0.00 57 1009.4
20260901025823 74 298 1.0 7.0 0.00 0.00 0.00 56 1009.2
20260901024814 74 285 1.0 7.0 0.00 0.00 0.00 56 1009.1
20260901024309 75 299 1.0 4.0 0.00 0.00 0.00 55 1009.2
20260901023803 76 207 1.0 4.0 0.00 0.00 0.00 55 1009.1
20260901023256 76 346 1.0 4.0 0.00 0.00 0.00 54 1009.1
20260901022751 77 223 1.0 4.0 0.00 0.00 0.00 53 1009.0
20260901022244 77 259 1.0 4.0 0.00 0.00 0.00 52 1009.0
20260901021739 78 223 1.0 6.0 0.00 0.00 0.00 52 1009.0
20260901021232 78 244 2.0 7.0 0.00 0.00 0.00 51 1008.9
20260901020727 79 269 2.0 7.0 0.00 0.00 0.00 51 1008.8
20260901020225 80 89 2.0 6.0 0.00 0.00 0.00 50 1008.9
20260901015725 80 202 2.0 7.0 0.00 0.00 0.00 49 1008.9
20260901015222 80 232 2.0 7.0 0.00 0.00 0.00 48 1008.7
20260901014724 81 186 2.0 7.0 0.00 0.00 0.00 48 1008.6
20260901014223 81 219 1.0 7.0 0.00 0.00 0.00 46 1008.6
20260901013722 82 210 0.0 3.0 0.00 0.00 0.00 44 1008.6
20260901013222 82 215 1.0 2.0 0.00 0.00 0.00 43 1008.5
20260901012721 82 215 1.0 2.0 0.00 0.00 0.00 43 1008.6
20260901012220 83 215 0.0 1.0 0.00 0.00 0.00 42 1008.5
20260901011721 83 215 0.0 2.0 0.00 0.00 0.00 41 1008.6
20260901011220 83 215 0.0 2.0 0.00 0.00 0.00 40 1008.6
20260901010721 83 215 0.0 2.0 0.00 0.00 0.00 40 1008.6
20260901010224 84 215 0.0 2.0 0.00 0.00 0.00 39 1008.7
20260901010220 83 216 1.0 2.0 0.00 0.00 0.00 40 1008.7
20260901005220 84 216 0.0 2.0 0.00 0.00 0.00 40 1008.7
20260901004721 84 215 0.0 2.0 0.00 0.00 0.00 40 1008.7
20260901004221 84 249 0.0 2.0 0.00 0.00 0.00 40 1008.7
20260901003715 84 249 0.0 1.0 0.00 0.00 0.00 40 1008.7
20260901003214 84 249 0.0 1.0 0.00 0.00 0.00 41 1008.7
20260901002717 84 249 0.0 2.0 0.00 0.00 0.00 39 1008.7
20260901002213 84 249 0.0 2.0 0.00 0.00 0.00 40 1008.8
20260901001713 85 224 1.0 2.0 0.00 0.00 0.00 40 1008.8
20260901001213 85 224 1.0 3.0 0.00 0.00 0.00 40 1008.9
20260901000712 85 200 1.0 3.0 0.00 0.00 0.00 39 1008.9
20260901000213 86 334 1.0 4.0 0.00 0.00 0.00 39 1008.8